User: anonymous   Login
Location: Unspecified
(0.0000°N, 0.0000°E)
Time: 06:53:27
(UTC+00:00)
Language:

QIANFAN-62 - Orbit

View from above orbital plane
View from above orbital plane
View from above satellite
View from above satellite

Ground track
Ground track

The orbit is defined by the following mean orbital elements,

1 62792U          26145.57116949 +.00000000 +00000-0 +13405-3 0 00005
2 62792  88.9727  86.1050 0014067 225.4282 134.5722 13.51010824    01
Epoch (UTC): 25 May 2026 13:42:29
Eccentricity: 0.0014067
inclination: 88.9727°
perigee height: 1058 km
apogee height: 1079 km
right ascension of ascending node: 86.1050°
argument of perigee: 225.4282°
revolutions per day: 13.51010824
mean anomaly at epoch: 134.5722°

The dashed part of the orbit path shows where the satellite is in the earth's shadow,  

DLR